Content
SEND FEEDBACK

Daily
Averages
Monthly
Summary
United States of America

CARTERSVILLE, VIRGINIA


Home > North America > United States > Virginia
Elevation: 223 feet     Latitude: 37 42N     Longitude: 078 18W

WEATHER
 
SELECT A DAY
Number of Records: 88,508;   Date Range: 2/1/11 - 12/27/14
 
SHARE

PRINT THIS DATA

[ ← Previous Day ]
WEATHER ALMANAC - JULY 20, 2014
[ Next Day → ]
[ °C ]   °F
Weather ElementAverageHighLow
Temperature74.1 °F80.6 °F (10:35 am)66.2 °F (3:55 am)
Dewpoint62 °F66.2 °F (12:15 am)57.2 °F (3:15 pm)
Humidity66.7 %83 % (9:55 am)45 % (1:15 pm)
Barometer30.10 in30.13 in (10:55 am)30.06 in (12:15 am)
Wind Speed1.3 mph5.8 mph (1:35 am)
Weather ElementAverage
Visibility10 mi
Wind DirectionENE (55 °)

Weather ElementTotal
Precipitation---
Cooling Degree Days8.4 (Base 65)
Growing Degree Days23.4 (Base 50)
Averaged from 72 records on July 20, 2014
WEATHER CONDITIONS BREAKOUT
WIND DIRECTION BREAKOUT
WEATHER BY HOUR - JULY 20, 2014
[ °C ]   °F
Local TimeTemperatureDewpointHumidityBarometerVisibilityWind DirectionWind SpeedGust SpeedPrecipitationEventsConditions
12:15 AM71.6 °F59.0 °F64 %30.11 in10.0 miCalmOvercast
12:35 AM69.8 °F60.8 °F73 %30.11 in10.0 miCalmOvercast
12:55 AM69.8 °F60.8 °F73 %30.11 in10.0 miCalmOvercast
1:15 AM69.8 °F60.8 °F73 %30.11 in10.0 miCalmOvercast
1:35 AM69.8 °F60.8 °F73 %30.10 in10.0 miNorth (360°)3.5 mphOvercast
1:55 AM69.8 °F60.8 °F73 %30.10 in10.0 miCalmOvercast
2:15 AM69.8 °F59.0 °F68 %30.09 in10.0 miCalmOvercast
2:35 AM69.8 °F59.0 °F68 %30.08 in10.0 miNorth (10°)3.5 mphOvercast
2:55 AM69.8 °F59.0 °F68 %30.08 in10.0 miCalmOvercast
3:15 AM69.8 °F60.8 °F73 %30.07 in10.0 miCalmOvercast
3:35 AM69.8 °F60.8 °F73 %30.07 in10.0 miNorth (350°)3.5 mphOvercast
3:55 AM69.8 °F60.8 °F73 %30.07 in10.0 miCalmOvercast
4:15 AM68.0 °F60.8 °F78 %30.07 in10.0 miCalmOvercast
4:35 AM68.0 °F60.8 °F78 %30.07 in10.0 miCalmOvercast
4:55 AM68.0 °F60.8 °F78 %30.08 in10.0 miNorth (350°)3.5 mphOvercast
5:15 AM68.0 °F60.8 °F78 %30.08 in10.0 miNorth (360°)3.5 mphOvercast
5:35 AM66.2 °F60.8 °F83 %30.09 in10.0 miCalmOvercast
5:55 AM66.2 °F60.8 °F83 %30.09 in10.0 miCalmOvercast
6:15 AM66.2 °F60.8 °F83 %30.09 in10.0 miCalmOvercast
6:35 AM66.2 °F60.8 °F83 %30.10 in10.0 miCalmOvercast
6:55 AM66.2 °F60.8 °F83 %30.10 in10.0 miCalmOvercast
7:15 AM66.2 °F60.8 °F83 %30.10 in10.0 miCalmOvercast
7:35 AM66.2 °F59.0 °F78 %30.11 in10.0 miNorth (10°)4.6 mphOvercast
7:55 AM68.0 °F59.0 °F73 %30.12 in10.0 miNorth (10°)3.5 mphOvercast
8:15 AM68.0 °F59.0 °F73 %30.12 in10.0 miCalmOvercast
8:35 AM69.8 °F59.0 °F68 %30.13 in10.0 miCalmOvercast
8:55 AM69.8 °F59.0 °F68 %30.13 in10.0 miCalmOvercast
9:15 AM69.8 °F60.8 °F73 %30.13 in10.0 miNNE (30°)3.5 mphOvercast
9:35 AM71.6 °F60.8 °F69 %30.13 in10.0 miCalmOvercast
9:55 AM71.6 °F60.8 °F69 %30.12 in10.0 miCalmOvercast
10:15 AM75.2 °F60.8 °F61 %30.12 in10.0 miNE (50°)4.6 mphOvercast
10:35 AM75.2 °F62.6 °F65 %30.13 in10.0 miCalmOvercast
10:55 AM75.2 °F62.6 °F65 %30.12 in10.0 miNNE (30°)3.5 mphOvercast
11:15 AM75.2 °F62.6 °F65 %30.12 in10.0 miSSW (210°)3.5 mphOvercast
11:35 AM77.0 °F62.6 °F61 %30.13 in10.0 miCalmOvercast
11:55 AM78.8 °F62.6 °F57 %30.12 in10.0 miSSW (210°)4.6 mphOvercast
12:15 PM77.0 °F62.6 °F61 %30.12 in10.0 miSSE (160°)4.6 mphOvercast
12:35 PM78.8 °F62.6 °F57 %30.12 in10.0 miSE (140°)4.6 mphOvercast
12:55 PM78.8 °F62.6 °F57 %30.11 in10.0 miCalmOvercast
1:15 PM78.8 °F62.6 °F57 %30.11 in10.0 miSSE (160°)4.6 mphOvercast
1:35 PM80.6 °F57.2 °F45 %30.10 in10.0 miSouth (180°)5.8 mphOvercast
1:55 PM80.6 °F59.0 °F48 %30.09 in10.0 miSSW (210°)3.5 mphMostly Cloudy
2:15 PM80.6 °F60.8 °F51 %30.09 in10.0 miSE (130°)4.6 mphOvercast
2:35 PM80.6 °F60.8 °F51 %30.09 in10.0 miSSW (210°)4.6 mphOvercast
2:55 PM80.6 °F60.8 °F51 %30.09 in10.0 miSSW (200°)3.5 mphOvercast
3:15 PM80.6 °F62.6 °F54 %30.08 in10.0 miSouth (180°)4.6 mphOvercast
3:35 PM78.8 °F62.6 °F57 %30.08 in10.0 miSSW (200°)4.6 mphOvercast
3:55 PM78.8 °F62.6 °F57 %30.08 in10.0 miCalmOvercast
4:15 PM78.8 °F62.6 °F57 %30.07 in10.0 miCalmOvercast
4:35 PM78.8 °F62.6 °F57 %30.07 in10.0 miCalmOvercast
4:55 PM80.6 °F64.4 °F58 %30.07 in10.0 miSSW (210°)3.5 mphOvercast
5:15 PM78.8 °F62.6 °F57 %30.06 in10.0 miCalmOvercast
5:35 PM80.6 °F62.6 °F54 %30.07 in10.0 miCalmOvercast
5:55 PM80.6 °F62.6 °F54 %30.06 in10.0 miCalmOvercast
6:15 PM80.6 °F62.6 °F54 %30.07 in10.0 miCalmOvercast
6:35 PM80.6 °F62.6 °F54 %30.07 in10.0 miCalmOvercast
6:55 PM80.6 °F64.4 °F58 %30.07 in10.0 miCalmOvercast
7:15 PM80.6 °F64.4 °F58 %30.08 in10.0 miCalmOvercast
7:35 PM80.6 °F64.4 °F58 %30.07 in10.0 miCalmMostly Cloudy
7:55 PM78.8 °F64.4 °F61 %30.07 in10.0 miCalmMostly Cloudy
8:15 PM77.0 °F64.4 °F65 %30.08 in10.0 miCalmOvercast
8:35 PM75.2 °F64.4 °F69 %30.08 in10.0 miCalmOvercast
8:55 PM75.2 °F64.4 °F69 %30.08 in10.0 miCalmOvercast
9:15 PM75.2 °F64.4 °F69 %30.09 in10.0 miCalmOvercast
9:35 PM75.2 °F64.4 °F69 %30.10 in10.0 miCalmOvercast
9:55 PM73.4 °F66.2 °F78 %30.10 in10.0 miCalmOvercast
10:15 PM75.2 °F66.2 °F73 %30.10 in10.0 miCalmOvercast
10:35 PM75.2 °F66.2 °F73 %30.11 in10.0 miCalmOvercast
10:55 PM73.4 °F66.2 °F78 %30.11 in10.0 miCalmOvercast
11:15 PM75.2 °F66.2 °F73 %30.11 in10.0 miCalmOvercast
11:35 PM73.4 °F66.2 °F78 %30.11 in10.0 miCalmOvercast
11:55 PM73.4 °F66.2 °F78 %30.11 in10.0 miCalmOvercast
Hourly data recorded from KFVX, located miles away from Cartersville, Virginia







STORIES FROM OUR PARTNERS